Regional Weather Roundup
Issued by NWS Mt. Holly, NJ

Current Version | Previous Version | Text Only | Print | Product List | Glossary On
Versions: 1 2 3 4 5 6 7 8 9 10 11 12 13 14 15 16 17 18 19 20 21 22 23 24 25 26 27 28 29 30 31 32 33 34 35 36 37 38 39 40 41 42 43 44 45 46 47 48 49 50
000
ASUS41 KPHI 182212
RWRPHI

REGIONAL WEATHER ROUNDUP
NATIONAL WEATHER SERVICE MOUNT HOLLY NJ
500 PM EST THU JAN 18 2018

NOTE:  "FAIR" INDICATES FEW OR NO CLOUDS BELOW 12,000 FEET WITH NO
SIGNIFICANT WEATHER AND/OR OBSTRUCTIONS TO VISIBILITY.

 * = STATION DOES NOT REPORT PRECIPITATION (E.G. RAIN, SNOW, ETC.)
        OR FOG.

NJZ015>026-182300-
SOUTHERN NEW JERSEY

CITY           SKY/WX    TMP DP  RH WIND       PRES   REMARKS
POMONA         FAIR      33  10  38 NW10      30.00R WCI  25
WILDWOOD*      FAIR      32  18  56 W6        30.03R WCI  26
MILLVILLE      FAIR      34  13  41 NW8       30.00R WCI  27
WRIGHTSTOWN    FAIR      29  12  48 NW13      29.95S WCI  19
MOUNT HOLLY    FAIR      32  11  41 NW8       29.99S WCI  25
TRENTON        FAIR      30  10  43 NW8       29.98R WCI  22

$$
NJZ001>014-182300-
NORTHERN NEW JERSEY

CITY           SKY/WX    TMP DP  RH WIND       PRES   REMARKS
SUSSEX         FAIR      27  10  49 VRB5      29.96R WCI  22
ANDOVER*         N/A     25  10  53 VRB6      29.96R WCI  18
MORRISTOWN     CLEAR     28  14  54 NW8G15    29.97R WCI  20
NEWARK         FAIR      31  11  43 NW12G25   29.96R WCI  22
TETERBORO      FAIR      31  12  45 NW15G26   29.95R WCI  20
CALDWELL       FAIR      28  11  48 NW8       29.97R WCI  20
SOMERVILLE     FAIR      29  12  49 NW8       29.96R WCI  21
ALLAIRE*       FAIR      29  11  47 W12       29.98R WCI  19
TOMS RIVER*    FAIR      30  12  47 NW12      29.99R WCI  20

$$
PAZ043-044-047-054-055-060>062-066>071-182300-
EASTERN PENNSYLVANIA

CITY           SKY/WX    TMP DP  RH WIND       PRES   REMARKS
PHILADELPHIA   FAIR      34   9  35 VRB6      30.01R WCI  29
NORTH PHILA    FAIR      32  11  41 NW7       30.01R WCI  26
BLUE BELL*     FAIR      30  12  47 NW3       30.00S
DOYLESTOWN     FAIR      28   9  44 NW14G22   29.98R WCI  17
QUAKERTOWN*    FAIR      27  10  50 MISG      29.99R
PERKASIE*      FAIR      27   9  46 W7        29.99R WCI  19
POTTSTOWN      FAIR      29  10  45 NW7       30.01R WCI  22
LANCASTER      FAIR      32  13  45 NW8       30.00R WCI  25
COATESVILLE    FAIR      32  12  43 NW10      29.99S WCI  24
READING        FAIR      29  14  53 NW9       30.00R WCI  20
ALLENTOWN      FAIR      28  10  46 NW7       29.99R WCI  21
MOUNT POCONO   FAIR      19   8  62 W10G20    29.87R WCI   7
HAZLETON       FAIR      23   9  54 W9G17     29.95R WCI  13
LEHIGHTON      FAIR      28  10  47 W6        30.00R WCI  22
WILKES BARRE   FAIR      23  10  57 NW7       29.97R WCI  15

$$
DEZALL-MDZ008-012-015-019-020-182300-
DELAWARE AND EASTERN MARYLAND

CITY           SKY/WX    TMP DP  RH WIND       PRES   REMARKS
WILMINGTON     FAIR      33  13  43 NW8       30.02R WCI  26
DOVER          FAIR      36  19  50 W6        30.01R WCI  31
GEORGETOWN     FAIR      38   9  30 W5        30.03R WCI  34
EASTON         CLEAR     39  10  30 CALM      30.07R
ABERDEEN       CLEAR     37  14  38 W6        30.04R WCI  33
OCEAN CITY     FAIR      36  12  37 W5        30.04R WCI  32
WALLOPS ISLAND FAIR      34  17  50 W9        30.07R WCI  27
CAMBRIDGE      CLEAR     37  10  32 W6        30.05R WCI  33
SALISBURY      FAIR      34  13  41 SW9       30.04R WCI  27

$$
PAZ001-021-NYZ056-072-MDZ011-DCZ001-182300-
OTHER NEARBY LOCATIONS

CITY           SKY/WX    TMP DP  RH WIND       PRES   REMARKS
HARRISBURG     FAIR      34  14  43 NW12      30.01R WCI  25
STATE COLLEGE  CLEAR     27  10  50 W12       30.02S WCI  16
WILLIAMSPORT   FAIR      27  12  53 W10       30.02R WCI  17
BINGHAMTON     FAIR      18   9  68 NW8       29.94R WCI   8
NEW YORK CITY  FAIR      31  11  43 NW10G20   29.96R WCI  22
BALTIMORE      FAIR      40   7  25 W14G22    30.02R WCI  32
WASHINGTON DC  FAIR      45   3  17 W7        30.05R

$$



USA.gov is the U.S. government's official web portal to all federal, state and local government web resources and services.